This demonstration page uses our WeatherBlox Daily Observations layout. Learn more.

Left ArrowRight Arrow

53.62937, 11.41316

Hourly Observations for March 13, 2019

Temp ( °F °C ) Dew Point ( °F °C ) Humidity (%) Winds ( mph kmh ) Pressure ( in mb ) Visibility ( mi km ) Precip ( " mm )
6:50 am 06:50 Mostly Cloudy 41 5 34 1 76 76 SSW 14 22 29.44 997 30 48 N/A
7:20 am 07:20 Mostly Cloudy with Drizzle 41 5 34 1 76 76 SSW 15 24 29.41 996 30 48 N/A
7:50 am 07:50 Mostly Cloudy 43 6 34 1 71 71 SW 17 28 29.41 996 30 48 N/A
8:20 am 08:20 Mostly Cloudy 43 6 34 1 71 71 SW 17 28 29.41 996 30 48 N/A
8:50 am 08:50 Mostly Cloudy with Drizzle 43 6 36 2 76 76 SW 17 28 29.41 996 4 7 N/A
9:20 am 09:20 Mostly Cloudy with Drizzle 43 6 36 2 76 76 SW 17 28 29.41 996 30 48 N/A
9:50 am 09:50 Mostly Cloudy 43 6 34 1 71 71 SW 21 33 29.41 996 30 48 N/A
10:20 am 10:20 Mostly Cloudy 45 7 34 1 66 66 SW 16 26 29.41 996 30 48 N/A
10:50 am 10:50 Mostly Cloudy 45 7 34 1 66 66 SW 17 28 29.38 995 30 48 N/A
11:20 am 11:20 Mostly Cloudy 45 7 34 1 66 66 SSW 22 35 29.38 995 30 48 N/A
11:50 am 11:50 Mostly Cloudy 45 7 36 2 71 71 SW 18 30 29.38 995 30 48 N/A
12:20 pm 12:20 Mostly Cloudy with Light Rain 45 7 37 3 76 76 SSW 18 30 29.38 995 5 8 N/A
12:50 pm 12:50 Mostly Cloudy with Light Rain 45 7 37 3 76 76 SSW 20 31 29.38 995 30 48 N/A
1:20 pm 13:20 Mostly Cloudy with Light Rain 43 6 37 3 81 81 SW 21 33 29.38 995 30 48 N/A
1:50 pm 13:50 Mostly Cloudy with Light Rain 43 6 37 3 81 81 SW 17 28 29.35 994 30 48 N/A
2:20 pm 14:20 Mostly Cloudy 45 7 37 3 76 76 SSW 20 31 29.35 994 30 48 N/A
2:50 pm 14:50 Mostly Cloudy with Light Rain 45 7 37 3 76 76 SSW 20 31 29.35 994 30 48 N/A
3:20 pm 15:20 Mostly Cloudy 45 7 37 3 76 76 SSW 17 28 29.35 994 30 48 N/A
3:50 pm 15:50 Mostly Cloudy 45 7 37 3 76 76 SSW 16 26 29.32 993 30 48 N/A
4:20 pm 16:20 Mostly Cloudy with Light Rain 45 7 37 3 76 76 SSW 17 28 29.32 993 30 48 N/A
4:50 pm 16:50 Mostly Cloudy with Light Rain 45 7 37 3 76 76 SW 18 30 29.32 993 30 48 N/A
5:20 pm 17:20 Mostly Cloudy with Light Rain 43 6 39 4 87 87 SW 18 30 29.33 993 30 48 N/A
5:50 pm 17:50 Mostly Cloudy 43 6 39 4 87 87 SW 15 24 29.33 993 30 48 N/A
6:20 pm 18:20 Mostly Cloudy with Light Rain 43 6 39 4 87 87 SW 16 26 29.33 993 30 48 N/A
6:50 pm 18:50 Mostly Cloudy with Drizzle 43 6 37 3 81 81 SSW 16 26 29.33 993 30 48 N/A
7:20 pm 19:20 Mostly Cloudy 41 5 37 3 87 87 SW 16 26 29.33 993 30 48 N/A

Powered by AerisWeather